Location: Huisseau
(47.5933°N, 1.4533°E)
Time: 19:11:19
(UTC+00:00)

CENTAUR R/B - Pass Details

Date: 21 November 2025
Orbit: 633 x 1547 km, 63.4° (Epoch: 06 December)

Event Time Altitude Azimuth Distance (km) Brightness Sun altitude
Exits shadow 02:30:10 40° 59° (ENE) 1,970 4.2 -46.0°
Drops below altitude 10° 02:37:14 10° 104° (ESE) 3,668 5.9 -44.9°
Sets 02:40:36 0° 111° (ESE) 4,691 6.5 -44.3°
